{"data":{"norad_id":59235,"epoch":"2026-09-20T21:57:47.090304Z","epoch_age_seconds":122952,"freshness":"FRESH","line1":"1 59235U 24049E   26263.91512836 -.00000504  00000+0 -88063-5 0  9997","line2":"2 59235  43.0012 120.9776 0001051 265.0461  95.0271 15.27574474142264","mean_motion":15.27574474,"eccentricity":0.0001051,"inclination_deg":43.0012,"raan_deg":120.9776,"arg_perigee_deg":265.0461,"mean_anomaly_deg":95.0271,"bstar":-8.8063e-6,"rev_number":14226,"period_min":94.267089723574,"perigee_km":482.34453052373,"apogee_km":483.78675531927,"semimajor_km":6861.2026429215,"source":"CELESTRAK","updated_at":"2026-09-21T09:00:34.074764Z"}}